sat.trackr.live / text

‹ back to catalog

STARLINK-2252

NORAD 48595 · 2021-041AU

PAYLOAD ACTIVE UNKNOWN

§ Identity

Operator
Country
US
Launch date
2021-05-15
Launch site
AFETR
Launch vehicle
Mass (kg)
RCS (m²)

Purposes: comms

External: N2YO · Heavens-Above · Gunter

§ Orbital elements

Epoch: 2026-09-08T13:42:17.606304Z

Period
94.01 min
Inclination
53.1601°
Eccentricity
0.0001067
Mean motion
15.31710938 rev/d
Perigee alt
470.0 km
Apogee alt
471.4 km
Semi-major
6,848.8 km
B*
8.6548e-5
RAAN
17.8263°
Arg perigee
74.1578°
Mean anomaly
285.9541°
Rev number
29,424

§ Raw data

STARLINK-22521 48595U 21041AU  26251.57103711  .00002322  00000+0  86548-4 0  99932 48595  53.1601  17.8263 0001067  74.1578 285.9541 15.31710938294245

JSON: /api/v1/satellites/48595 · /tle

For live sub-satellite position, see the globe view (requires WebGL).

§ Visibility from observer

Set your observer location to see the next 7 days of passes ≥ 10°. The values pass through the URL so the page stays shareable.

No JS? Fill the form by hand. The geolocation button needs JavaScript.